Location: Demmingen
(48.6757°N, 10.4375°E)
Time: 09:56:40
(UTC+00:00)

USA 267 - Pass Details

Date: 20 August 2024
Orbit: 1096 x 1111 km, 123.1° (Epoch: 03 September)

Event Time Altitude Azimuth Distance (km) Brightness Sun altitude
Exits shadow 21:02:03 - 206° (SSW) 3,222 5.4 -21.9°
Reaches altitude 10° 21:03:38 10° 218° (SW) 2,954 5.4 -22.1°
Maximum altitude 21:06:11 12° 241° (WSW) 2,775 5.4 -22.3°
Drops below altitude 10° 21:08:46 10° 265° (W) 2,965 5.9 -22.6°
Sets 21:13:11 0° 293° (WNW) 3,932 7.1 -23.0°
